Flag for Indonesia Weather past 2 weeks in Makassar, South Sulawesi, Indonesia

Now
81 °F

Passing clouds.


Feels Like: 85 °F
Forecast: 77 / 87 °F
Wind: 3 mph from East

Location: Ujung Pandang / Hasanuddin

Current Time: Aug 1, 2014 at 8:19:38 AM

Latest Report: Aug 1, 2014 at 8:00 AM


Visibility: N/A

Pressure: 29.86 "Hg

Humidity: 74%

Dew point: 72 °F

Location of MakassarLocation

Historic Weather in Makassar — Graph

°F

Makassar temperature yesterday

Maximum temperature yesterday: 91 °F (at 11:30 AM)
Minimum temperature yesterday: 70 °F (at 5:30 AM)
Average temperature yesterday: 81 °F

Past Weeks' High & Low Weather Summary

 TemperatureHumidityPressure
High93 °F (Jul 22, 1:30 PM)100% (Jul 17, 9:30 PM)29.95 "Hg (Jul 17, 9:30 PM)
Low68 °F (Jul 24, 2:30 AM)39% (Jul 28, 1:00 PM)29.74 "Hg (Jul 18, 2:30 PM)
Average80 °F76%29.85 "Hg
* Reported Jul 17 7:00 AM — Aug 1 7:00 AM, Makassar, Weather by CustomWeather, © 2014

Note: Actual official high and low records may vary slightly from our data, if they occured in-between our weather recording intervals... More about our weather records

Advertising

Makassar weather history for previous 24 hours

 ConditionsComfort  
Time TempWeatherWind HumidityBarometerVisibility
7:00 AM
Aug 1
72 °FPassing clouds.2 mph94%29.86 "HgN/A
6:30 AM70 °FPassing clouds.2 mph94%29.86 "Hg6 mi
6:00 AM70 °FPassing clouds.2 mph100%29.83 "Hg5 mi
5:30 AM70 °FPassing clouds.2 mph100%29.83 "Hg5 mi
5:00 AM72 °FPassing clouds.2 mph94%29.83 "Hg5 mi
4:00 AM72 °FPassing clouds.2 mph94%29.83 "Hg5 mi
3:30 AM72 °FPassing clouds.2 mph94%29.83 "Hg5 mi
3:00 AM72 °FPassing clouds.3 mph94%29.83 "Hg5 mi
2:30 AM72 °FPassing clouds.3 mph94%29.83 "Hg5 mi
2:00 AM73 °FPassing clouds.3 mph94%29.83 "Hg5 mi
1:30 AM73 °FPassing clouds.3 mph89%29.83 "Hg5 mi
1:00 AM75 °FPassing clouds.3 mph83%29.83 "Hg5 mi
12:30 AM73 °FPassing clouds.2 mph89%29.86 "Hg5 mi
12:00 AM75 °FPassing clouds.3 mph83%29.86 "Hg5 mi
11:30 PM
Jul 31
75 °FPassing clouds.2 mph89%29.86 "Hg5 mi
11:00 PM75 °FPassing clouds.3 mph83%29.86 "Hg5 mi
10:30 PM75 °FPassing clouds.1 mph89%29.86 "Hg5 mi
10:00 PM75 °FPassing clouds.3 mph94%29.86 "Hg5 mi
9:30 PM77 °FPassing clouds.2 mph83%29.86 "Hg5 mi
9:00 PM77 °FPassing clouds.2 mph89%29.86 "Hg5 mi
8:30 PM77 °FPassing clouds.2 mph83%29.86 "Hg5 mi
8:00 PM79 °FPassing clouds.2 mph84%29.83 "Hg5 mi
7:30 PM79 °FPassing clouds.3 mph84%29.83 "Hg5 mi
7:00 PM81 °FPassing clouds.5 mph79%29.80 "HgN/A
6:30 PM82 °FPassing clouds.3 mph79%29.80 "Hg5 mi
6:00 PM84 °FPassing clouds.5 mph70%29.80 "HgN/A
5:30 PM86 °FPassing clouds.6 mph66%29.80 "HgN/A
5:00 PM88 °FPassing clouds.6 mph59%29.77 "HgN/A
4:30 PM88 °FPassing clouds.8 mph59%29.77 "HgN/A
4:00 PM88 °FPassing clouds.8 mph55%29.77 "HgN/A
3:30 PM88 °FPassing clouds.10 mph62%29.77 "HgN/A
3:00 PM88 °FPassing clouds.12 mph62%29.77 "HgN/A
2:30 PM90 °FPassing clouds.10 mph59%29.77 "HgN/A
2:00 PM91 °FPassing clouds.10 mph56%29.80 "HgN/A
1:30 PM90 °FPassing clouds.13 mph59%29.80 "HgN/A
1:00 PM91 °FPassing clouds.7 mph59%29.83 "HgN/A
12:30 PM91 °FPassing clouds.3 mph52%29.83 "HgN/A
12:00 PM91 °FPassing clouds.5 mph52%29.83 "HgN/A
11:30 AM91 °FPassing clouds.6 mph52%29.86 "HgN/A
11:00 AM90 °FPassing clouds.6 mph55%29.86 "HgN/A
10:30 AM88 °FPassing clouds.5 mph62%29.89 "HgN/A
10:00 AM88 °FPassing clouds.5 mph59%29.89 "HgN/A
9:30 AM86 °FPassing clouds.6 mph62%29.89 "HgN/A
9:00 AM84 °FPassing clouds.5 mph66%29.89 "HgN/A
8:30 AM82 °FPassing clouds.5 mph70%29.89 "HgN/A
8:00 AM79 °FPassing clouds.2 mph79%29.89 "HgN/A
Weather by CustomWeather, © 2014

See weather overviewHow to use our weather pages